| time (UTC) | temp F | wind direction | speed MPH | gust MPH | rain 1hr in | rain 24hr in | rain mn in | humidity % | barometer mb |
| 20260502222043 | 77 | 140 | 0.0 | 2.0 | 0.00 | 0.00 | 0.00 | 52 | 1015.8 |
| 20260502221539 | 77 | 293 | 1.0 | 3.0 | 0.00 | 0.00 | 0.00 | 51 | 1016.1 |
| 20260502221037 | 77 | 117 | 2.0 | 9.0 | 0.00 | 0.00 | 0.00 | 53 | 1016.1 |
| 20260502220532 | 77 | 188 | 1.0 | 6.0 | 0.00 | 0.00 | 0.00 | 52 | 1015.8 |
| 20260502220029 | 78 | 191 | 3.0 | 6.0 | 0.00 | 0.00 | 0.00 | 50 | 1016.1 |
| 20260502215526 | 77 | 167 | 2.0 | 3.0 | 0.00 | 0.00 | 0.00 | 52 | 1016.0 |
| 20260502215023 | 77 | 158 | 0.0 | 6.0 | 0.00 | 0.00 | 0.00 | 53 | 1015.9 |
| 20260502214520 | 77 | 69 | 0.0 | 2.0 | 0.00 | 0.00 | 0.00 | 52 | 1016.1 |
| 20260502214018 | 77 | 104 | 0.0 | 2.0 | 0.00 | 0.00 | 0.00 | 50 | 1016.0 |
| 20260502213514 | 77 | 331 | 8.0 | 10.0 | 0.00 | 0.00 | 0.00 | 50 | 1016.1 |
| 20260502213012 | 77 | 168 | 1.0 | 2.0 | 0.00 | 0.00 | 0.00 | 51 | 1016.1 |
| 20260502212511 | 77 | 26 | 5.0 | 7.0 | 0.00 | 0.00 | 0.00 | 51 | 1016.2 |
| 20260502212008 | 77 | 57 | 1.0 | 7.0 | 0.00 | 0.00 | 0.00 | 51 | 1016.1 |
| 20260502211503 | 77 | 145 | 0.0 | 6.0 | 0.00 | 0.00 | 0.00 | 51 | 1016.1 |
| 20260502211001 | 77 | 355 | 3.0 | 11.0 | 0.00 | 0.00 | 0.00 | 52 | 1016.2 |
| 20260502210457 | 77 | 204 | 0.0 | 2.0 | 0.00 | 0.00 | 0.00 | 52 | 1016.3 |
| 20260502205955 | 77 | 52 | 1.0 | 3.0 | 0.00 | 0.00 | 0.00 | 51 | 1016.4 |
| 20260502205451 | 77 | 35 | 4.0 | 7.0 | 0.00 | 0.00 | 0.00 | 51 | 1016.4 |
| 20260502204948 | 77 | 121 | 0.0 | 3.0 | 0.00 | 0.00 | 0.00 | 52 | 1016.4 |
| 20260502204445 | 77 | 153 | 0.0 | 5.0 | 0.00 | 0.00 | 0.00 | 52 | 1016.3 |
| 20260502203943 | 76 | 345 | 3.0 | 6.0 | 0.00 | 0.00 | 0.00 | 54 | 1016.6 |
| 20260502203440 | 77 | 96 | 1.0 | 3.0 | 0.00 | 0.00 | 0.00 | 51 | 1016.4 |
| 20260502202936 | 76 | 51 | 5.0 | 8.0 | 0.00 | 0.00 | 0.00 | 50 | 1016.5 |
| 20260502202433 | 77 | 194 | 1.0 | 7.0 | 0.00 | 0.00 | 0.00 | 51 | 1016.8 |
| 20260502201931 | 76 | 74 | 1.0 | 2.0 | 0.00 | 0.00 | 0.00 | 53 | 1016.8 |
| 20260502201426 | 76 | 127 | 0.0 | 10.0 | 0.00 | 0.00 | 0.00 | 52 | 1016.8 |
| 20260502200924 | 76 | 111 | 1.0 | 3.0 | 0.00 | 0.00 | 0.00 | 52 | 1016.8 |
| 20260502200419 | 76 | 181 | 5.0 | 9.0 | 0.00 | 0.00 | 0.00 | 52 | 1016.8 |
| 20260502195917 | 76 | 89 | 5.0 | 9.0 | 0.00 | 0.00 | 0.00 | 50 | 1017.1 |
| 20260502195414 | 76 | 101 | 5.0 | 6.0 | 0.00 | 0.00 | 0.00 | 52 | 1017.0 |
| 20260502194910 | 76 | 108 | 1.0 | 3.0 | 0.00 | 0.00 | 0.00 | 53 | 1017.3 |
| 20260502194408 | 76 | 350 | 2.0 | 6.0 | 0.00 | 0.00 | 0.00 | 53 | 1017.3 |
| 20260502193903 | 75 | 143 | 0.0 | 3.0 | 0.00 | 0.00 | 0.00 | 53 | 1017.4 |
| 20260502193401 | 75 | 100 | 1.0 | 7.0 | 0.00 | 0.00 | 0.00 | 53 | 1017.4 |
| 20260502192856 | 75 | 102 | 3.0 | 8.0 | 0.00 | 0.00 | 0.00 | 53 | 1017.6 |
| 20260502192353 | 75 | 182 | 2.0 | 3.0 | 0.00 | 0.00 | 0.00 | 53 | 1017.6 |
| 20260502191850 | 75 | 31 | 3.0 | 9.0 | 0.00 | 0.00 | 0.00 | 53 | 1017.6 |
| 20260502191348 | 75 | 39 | 2.0 | 3.0 | 0.00 | 0.00 | 0.00 | 55 | 1017.7 |
| 20260502190845 | 75 | 73 | 5.0 | 14.0 | 0.00 | 0.00 | 0.00 | 54 | 1017.6 |
| 20260502190343 | 75 | 92 | 3.0 | 7.0 | 0.00 | 0.00 | 0.00 | 54 | 1017.6 |
| 20260502185838 | 75 | 197 | 1.0 | 9.0 | 0.00 | 0.00 | 0.00 | 54 | 1017.7 |
| 20260502185334 | 75 | 103 | 2.0 | 2.0 | 0.00 | 0.00 | 0.00 | 54 | 1017.7 |
| 20260502184832 | 75 | 96 | 1.0 | 6.0 | 0.00 | 0.00 | 0.00 | 55 | 1017.9 |
| 20260502184327 | 75 | 16 | 2.0 | 6.0 | 0.00 | 0.00 | 0.00 | 56 | 1017.9 |
| 20260502183823 | 73 | 84 | 4.0 | 7.0 | 0.00 | 0.00 | 0.00 | 54 | 1017.8 |
| 20260502183320 | 74 | 88 | 1.0 | 5.0 | 0.00 | 0.00 | 0.00 | 55 | 1018.0 |
| 20260502182815 | 73 | 37 | 1.0 | 8.0 | 0.00 | 0.00 | 0.00 | 56 | 1018.1 |
| 20260502182310 | 74 | 301 | 4.0 | 8.0 | 0.00 | 0.00 | 0.00 | 57 | 1017.9 |
| 20260502181807 | 74 | 93 | 1.0 | 5.0 | 0.00 | 0.00 | 0.00 | 57 | 1018.0 |
| 20260502181306 | 74 | 212 | 1.0 | 8.0 | 0.00 | 0.00 | 0.00 | 57 | 1018.3 |
| 20260502180804 | 74 | 57 | 0.0 | 2.0 | 0.00 | 0.00 | 0.00 | 57 | 1018.1 |
| 20260502180301 | 73 | 90 | 3.0 | 9.0 | 0.00 | 0.00 | 0.00 | 54 | 1018.4 |
| 20260502170220 | 71 | 82 | 5.0 | 10.0 | 0.00 | 0.00 | 0.00 | 59 | 1018.8 |
| 20260502164207 | 71 | 81 | 0.0 | 3.0 | 0.00 | 0.00 | 0.00 | 64 | 1018.7 |
| 20260502163702 | 71 | 129 | 0.0 | 3.0 | 0.00 | 0.00 | 0.00 | 63 | 1018.7 |
| 20260502163159 | 70 | 126 | 0.0 | 6.0 | 0.00 | 0.00 | 0.00 | 67 | 1018.8 |
| 20260502162656 | 70 | 113 | 1.0 | 6.0 | 0.00 | 0.00 | 0.00 | 67 | 1018.7 |
| 20260502162153 | 70 | 232 | 1.0 | 6.0 | 0.00 | 0.00 | 0.00 | 69 | 1018.8 |
| 20260502161650 | 69 | 27 | 2.0 | 7.0 | 0.00 | 0.00 | 0.00 | 68 | 1018.7 |
| 20260502161146 | 69 | 28 | 3.0 | 6.0 | 0.00 | 0.00 | 0.00 | 70 | 1018.8 |
| 20260502160645 | 68 | 87 | 4.0 | 6.0 | 0.00 | 0.00 | 0.00 | 70 | 1018.7 |
| 20260502160144 | 68 | 94 | 3.0 | 9.0 | 0.00 | 0.00 | 0.00 | 71 | 1018.7 |
| 20260502152103 | 66 | 60 | 4.0 | 7.0 | 0.00 | 0.00 | 0.00 | 76 | 1018.6 |
| 20260502151600 | 65 | 80 | 1.0 | 5.0 | 0.00 | 0.00 | 0.00 | 78 | 1018.5 |
| 20260502151058 | 65 | 101 | 2.0 | 6.0 | 0.00 | 0.00 | 0.00 | 79 | 1018.4 |
| 20260502150555 | 64 | 114 | 0.0 | 3.0 | 0.00 | 0.00 | 0.00 | 79 | 1018.7 |
| 20260502130440 | 56 | 87 | 1.0 | 8.0 | 0.00 | 0.00 | 0.00 | 99 | 1017.2 |
| 20260502123422 | 54 | 97 | 0.0 | 2.0 | 0.00 | 0.00 | 0.00 | 99 | 1016.9 |
| 20260502122920 | 53 | 165 | 0.0 | 3.0 | 0.00 | 0.00 | 0.00 | 99 | 1016.9 |
| 20260502122416 | 53 | 144 | 2.0 | 2.0 | 0.00 | 0.00 | 0.00 | 99 | 1016.8 |
| 20260502121914 | 53 | 290 | 0.0 | 2.0 | 0.00 | 0.00 | 0.00 | 99 | 1016.8 |
| 20260502121411 | 53 | 172 | 0.0 | 3.0 | 0.00 | 0.00 | 0.00 | 99 | 1016.6 |
| 20260502120908 | 53 | 163 | 0.0 | 3.0 | 0.00 | 0.00 | 0.00 | 99 | 1016.6 |
| 20260502120404 | 53 | 164 | 0.0 | 0.0 | 0.00 | 0.00 | 0.00 | 99 | 1016.4 |
| 20260502115902 | 53 | 154 | 0.0 | 0.0 | 0.00 | 0.00 | 0.00 | 99 | 1016.3 |
| 20260502115359 | 53 | 178 | 0.0 | 1.0 | 0.00 | 0.00 | 0.00 | 99 | 1016.5 |
| 20260502114855 | 53 | 108 | 0.0 | 1.0 | 0.00 | 0.00 | 0.00 | 99 | 1016.3 |
| 20260502114352 | 53 | 136 | 0.0 | 1.0 | 0.00 | 0.00 | 0.00 | 99 | 1016.2 |
| 20260502113849 | 53 | 132 | 0.0 | 1.0 | 0.00 | 0.00 | 0.00 | 99 | 1016.2 |
| 20260502113346 | 53 | 39 | 1.0 | 2.0 | 0.00 | 0.00 | 0.00 | 99 | 1016.3 |
| 20260502112845 | 53 | 136 | 0.0 | 1.0 | 0.00 | 0.00 | 0.00 | 99 | 1016.0 |
| 20260502112342 | 53 | 187 | 0.0 | 1.0 | 0.00 | 0.00 | 0.00 | 99 | 1016.1 |
| 20260502111839 | 53 | 261 | 1.0 | 1.0 | 0.00 | 0.00 | 0.00 | 99 | 1016.1 |
| 20260502111337 | 53 | 185 | 0.0 | 0.0 | 0.00 | 0.00 | 0.00 | 99 | 1015.9 |
| 20260502110834 | 53 | 166 | 0.0 | 0.0 | 0.00 | 0.00 | 0.00 | 99 | 1016.1 |
| 20260502110332 | 53 | 181 | 0.0 | 0.0 | 0.00 | 0.00 | 0.00 | 99 | 1015.9 |
| 20260502105829 | 53 | 196 | 0.0 | 0.0 | 0.00 | 0.00 | 0.00 | 99 | 1016.1 |
| 20260502105326 | 53 | 201 | 0.0 | 0.0 | 0.00 | 0.00 | 0.00 | 99 | 1015.8 |
| 20260502104824 | 54 | 201 | 0.0 | 0.0 | 0.00 | 0.00 | 0.00 | 99 | 1015.9 |
| 20260502104321 | 54 | 190 | 0.0 | 0.0 | 0.00 | 0.00 | 0.00 | 99 | 1015.6 |
| 20260502103818 | 54 | 167 | 0.0 | 0.0 | 0.00 | 0.00 | 0.00 | 99 | 1015.6 |
| 20260502103315 | 54 | 160 | 0.0 | 0.0 | 0.00 | 0.00 | 0.00 | 99 | 1015.5 |
| 20260502102813 | 54 | 155 | 0.0 | 0.0 | 0.00 | 0.00 | 0.00 | 98 | 1015.5 |
| 20260502102308 | 54 | 167 | 0.0 | 0.0 | 0.00 | 0.00 | 0.00 | 98 | 1015.4 |
| 20260502101807 | 55 | 173 | 0.0 | 0.0 | 0.00 | 0.00 | 0.00 | 97 | 1015.4 |
| 20260502101304 | 55 | 154 | 0.0 | 2.0 | 0.00 | 0.00 | 0.00 | 97 | 1015.3 |
| 20260502100803 | 55 | 143 | 0.0 | 0.0 | 0.00 | 0.00 | 0.00 | 96 | 1015.2 |
| 20260502100301 | 55 | 123 | 0.0 | 2.0 | 0.00 | 0.00 | 0.00 | 96 | 1015.1 |
| 20260502091235 | 56 | 28 | 1.0 | 5.0 | 0.00 | 0.00 | 0.00 | 96 | 1014.1 |
| 20260502090732 | 56 | 91 | 1.0 | 8.0 | 0.00 | 0.00 | 0.00 | 97 | 1014.0 |
| 20260502090229 | 56 | 117 | 0.0 | 2.0 | 0.00 | 0.00 | 0.00 | 97 | 1013.9 |
| 20260502071130 | 55 | 119 | 0.0 | 5.0 | 0.00 | 0.00 | 0.00 | 99 | 1014.0 |
| 20260502070628 | 55 | 56 | 0.0 | 3.0 | 0.00 | 0.00 | 0.00 | 99 | 1014.0 |
| 20260502070126 | 55 | 106 | 1.0 | 3.0 | 0.00 | 0.00 | 0.00 | 99 | 1014.0 |
| 20260502065624 | 55 | 44 | 0.0 | 2.0 | 0.00 | 0.00 | 0.00 | 99 | 1014.2 |
| 20260502065121 | 55 | 19 | 2.0 | 7.0 | 0.00 | 0.00 | 0.00 | 99 | 1014.1 |
| 20260502064620 | 55 | 65 | 0.0 | 3.0 | 0.00 | 0.00 | 0.00 | 99 | 1014.0 |
| 20260502064116 | 55 | 43 | 2.0 | 5.0 | 0.00 | 0.00 | 0.00 | 99 | 1014.0 |
| 20260502063614 | 55 | 81 | 0.0 | 5.0 | 0.00 | 0.00 | 0.00 | 99 | 1014.1 |
| 20260502063111 | 55 | 17 | 1.0 | 2.0 | 0.00 | 0.00 | 0.00 | 99 | 1014.0 |
| 20260502062609 | 55 | 96 | 0.0 | 3.0 | 0.00 | 0.00 | 0.00 | 99 | 1013.9 |
| 20260502062106 | 55 | 108 | 0.0 | 3.0 | 0.00 | 0.00 | 0.00 | 99 | 1014.0 |
| 20260502061604 | 55 | 27 | 3.0 | 6.0 | 0.00 | 0.00 | 0.00 | 99 | 1013.7 |
| 20260502061101 | 55 | 76 | 1.0 | 2.0 | 0.00 | 0.00 | 0.00 | 99 | 1013.8 |
| 20260502060556 | 55 | 91 | 1.0 | 8.0 | 0.00 | 0.00 | 0.00 | 99 | 1013.7 |
| 20260502060054 | 55 | 62 | 3.0 | 6.0 | 0.00 | 0.00 | 0.00 | 99 | 1013.8 |
| 20260502055551 | 55 | 65 | 2.0 | 3.0 | 0.00 | 0.00 | 0.00 | 99 | 1013.7 |
| 20260502055049 | 55 | 38 | 1.0 | 13.0 | 0.00 | 0.00 | 0.00 | 99 | 1013.9 |
| 20260502054548 | 55 | 40 | 3.0 | 6.0 | 0.00 | 0.00 | 0.00 | 99 | 1013.7 |
| 20260502054044 | 55 | 94 | 0.0 | 7.0 | 0.00 | 0.00 | 0.00 | 99 | 1013.7 |
| 20260502053541 | 55 | 135 | 0.0 | 5.0 | 0.00 | 0.00 | 0.00 | 99 | 1013.7 |
| 20260502053039 | 55 | 115 | 0.0 | 2.0 | 0.00 | 0.00 | 0.00 | 99 | 1013.7 |
| 20260502052538 | 55 | 102 | 1.0 | 2.0 | 0.00 | 0.00 | 0.00 | 99 | 1013.7 |
| 20260502052035 | 56 | 91 | 0.0 | 2.0 | 0.00 | 0.00 | 0.00 | 99 | 1013.4 |
| 20260502051533 | 56 | 96 | 1.0 | 3.0 | 0.00 | 0.00 | 0.00 | 99 | 1013.7 |
| 20260502051030 | 55 | 95 | 1.0 | 6.0 | 0.00 | 0.00 | 0.00 | 99 | 1013.6 |
| 20260502050526 | 55 | 22 | 1.0 | 5.0 | 0.00 | 0.00 | 0.00 | 99 | 1013.8 |
| 20260502050024 | 55 | 70 | 0.0 | 6.0 | 0.00 | 3.90 | 3.90 | 99 | 1013.5 |
| 20260502045520 | 55 | 62 | 2.0 | 6.0 | 0.00 | 3.90 | 3.90 | 99 | 1013.2 |
| 20260502045017 | 55 | 106 | 1.0 | 3.0 | 0.00 | 3.90 | 3.90 | 99 | 1013.3 |
| 20260502044514 | 55 | 104 | 0.0 | 6.0 | 0.00 | 3.90 | 3.90 | 99 | 1013.4 |
| 20260502044010 | 55 | 127 | 0.0 | 6.0 | 0.00 | 3.90 | 3.90 | 99 | 1013.2 |
| 20260502043508 | 55 | 128 | 3.0 | 8.0 | 0.00 | 3.90 | 3.90 | 99 | 1013.3 |
| 20260502043004 | 55 | 21 | 1.0 | 9.0 | 0.00 | 3.90 | 3.90 | 99 | 1013.4 |
| 20260502042459 | 55 | 71 | 1.0 | 5.0 | 0.00 | 3.90 | 3.90 | 99 | 1013.5 |
| 20260502041957 | 55 | 150 | 0.0 | 3.0 | 0.00 | 3.90 | 3.90 | 99 | 1013.9 |
| 20260502041455 | 55 | 119 | 1.0 | 3.0 | 0.00 | 3.90 | 3.90 | 99 | 1013.7 |
| 20260502040951 | 55 | 93 | 1.0 | 6.0 | 0.00 | 3.90 | 3.90 | 99 | 1013.6 |
| 20260502040448 | 56 | 105 | 0.0 | 5.0 | 0.00 | 3.90 | 3.90 | 99 | 1013.6 |
| 20260502035944 | 55 | 37 | 3.0 | 8.0 | 0.00 | 3.90 | 3.90 | 99 | 1013.4 |
| 20260502035440 | 56 | 100 | 0.0 | 6.0 | 0.00 | 3.90 | 3.90 | 99 | 1013.3 |
| 20260502034938 | 56 | 66 | 1.0 | 3.0 | 0.00 | 3.90 | 3.90 | 99 | 1013.5 |
| 20260502034437 | 56 | 140 | 0.0 | 3.0 | 0.00 | 3.90 | 3.90 | 99 | 1013.5 |
| 20260502033935 | 56 | 112 | 0.0 | 7.0 | 0.00 | 3.90 | 3.90 | 99 | 1013.2 |
| 20260502033432 | 56 | 90 | 0.0 | 3.0 | 0.00 | 3.90 | 3.90 | 99 | 1013.3 |
| 20260502032928 | 56 | 107 | 0.0 | 2.0 | 0.00 | 3.90 | 3.90 | 99 | 1013.4 |
| 20260502032425 | 56 | 82 | 2.0 | 6.0 | 0.00 | 3.90 | 3.90 | 99 | 1013.1 |
| 20260502031922 | 56 | 86 | 0.0 | 6.0 | 0.00 | 3.90 | 3.90 | 99 | 1013.1 |
| 20260502031421 | 56 | 93 | 0.0 | 5.0 | 0.00 | 3.90 | 3.90 | 99 | 1012.9 |
| 20260502030918 | 56 | 132 | 0.0 | 5.0 | 0.00 | 3.90 | 3.90 | 99 | 1012.9 |
| 20260502030416 | 56 | 105 | 0.0 | 6.0 | 0.00 | 3.90 | 3.90 | 99 | 1012.9 |
| 20260502025914 | 56 | 25 | 0.0 | 1.0 | 0.00 | 3.90 | 3.90 | 99 | 1012.6 |
| 20260502025411 | 57 | 27 | 1.0 | 8.0 | 0.00 | 3.90 | 3.90 | 99 | 1012.3 |
| 20260502024909 | 57 | 104 | 1.0 | 9.0 | 0.00 | 3.90 | 3.90 | 99 | 1012.3 |
| 20260502024407 | 57 | 49 | 2.0 | 5.0 | 0.00 | 3.90 | 3.90 | 99 | 1011.7 |
| 20260502023904 | 57 | 103 | 1.0 | 5.0 | 0.00 | 3.90 | 3.90 | 99 | 1011.7 |
| 20260502023401 | 57 | 100 | 2.0 | 7.0 | 0.00 | 3.90 | 3.90 | 99 | 1011.5 |
| 20260502022859 | 57 | 104 | 1.0 | 5.0 | 0.00 | 3.90 | 3.90 | 99 | 1011.7 |
| 20260502022355 | 58 | 124 | 1.0 | 8.0 | 0.00 | 3.90 | 3.90 | 99 | 1011.4 |
| 20260502021852 | 58 | 62 | 1.0 | 6.0 | 0.00 | 3.90 | 3.90 | 99 | 1011.4 |
| 20260502021350 | 58 | 27 | 1.0 | 5.0 | 0.00 | 3.90 | 3.90 | 99 | 1011.1 |
| 20260502020847 | 58 | 54 | 2.0 | 6.0 | 0.00 | 3.90 | 3.90 | 99 | 1010.8 |
| 20260502020344 | 59 | 135 | 0.0 | 1.0 | 0.00 | 3.90 | 3.90 | 99 | 1011.2 |
| 20260502015841 | 59 | 87 | 1.0 | 2.0 | 0.00 | 3.90 | 3.90 | 99 | 1011.3 |
| 20260502015338 | 58 | 139 | 0.0 | 0.0 | 0.05 | 3.90 | 3.90 | 99 | 1011.3 |
| 20260502014835 | 58 | 58 | 1.0 | 3.0 | 0.05 | 3.90 | 3.90 | 99 | 1011.3 |
| 20260502014333 | 58 | 93 | 1.0 | 6.0 | 0.07 | 3.89 | 3.89 | 99 | 1011.1 |
| 20260502013828 | 58 | 63 | 0.0 | 7.0 | 0.07 | 3.89 | 3.89 | 99 | 1011.0 |
| 20260502013324 | 58 | 117 | 0.0 | 3.0 | 0.00 | 3.88 | 3.88 | 99 | 1011.2 |
| 20260502012821 | 58 | 39 | 1.0 | 2.0 | 0.05 | 3.88 | 3.88 | 99 | 1011.2 |
| 20260502012319 | 58 | 139 | 1.0 | 2.0 | 0.07 | 3.87 | 3.87 | 99 | 1011.2 |
| 20260502011816 | 58 | 79 | 3.0 | 7.0 | 0.07 | 3.87 | 3.87 | 99 | 1010.9 |
| 20260502011312 | 59 | 105 | 1.0 | 2.0 | 0.00 | 3.86 | 3.86 | 99 | 1010.8 |
| 20260502010809 | 59 | 79 | 0.0 | 5.0 | 0.00 | 3.86 | 3.86 | 99 | 1010.5 |
| 20260502010305 | 59 | 109 | 0.0 | 5.0 | 0.07 | 3.86 | 3.86 | 99 | 1010.3 |
| 20260502005802 | 59 | 120 | 1.0 | 2.0 | 0.12 | 3.86 | 3.86 | 99 | 1010.2 |
| 20260502005301 | 59 | 352 | 2.0 | 5.0 | 0.17 | 3.85 | 3.85 | 99 | 1009.9 |
| 20260502004757 | 59 | 27 | 1.0 | 6.0 | 0.12 | 3.84 | 3.84 | 99 | 1010.0 |
| 20260502004253 | 59 | 3 | 3.0 | 6.0 | 0.00 | 3.82 | 3.82 | 99 | 1010.6 |
| 20260502003751 | 59 | 88 | 3.0 | 6.0 | 0.00 | 3.82 | 3.82 | 99 | 1010.5 |
| 20260502003248 | 59 | 318 | 3.0 | 5.0 | 0.07 | 3.82 | 3.82 | 99 | 1010.1 |
| 20260502002744 | 59 | 62 | 0.0 | 6.0 | 0.00 | 3.81 | 3.81 | 99 | 1009.7 |
| 20260502002242 | 59 | 10 | 1.0 | 5.0 | 0.00 | 3.81 | 3.81 | 99 | 1009.5 |
| 20260502001739 | 59 | 74 | 1.0 | 3.0 | 0.00 | 3.81 | 3.81 | 99 | 1009.4 |
| 20260502001237 | 59 | 17 | 2.0 | 6.0 | 0.05 | 3.81 | 3.81 | 99 | 1009.7 |
| 20260502000734 | 59 | 72 | 0.0 | 6.0 | 0.12 | 3.81 | 3.81 | 99 | 1009.5 |
| 20260502000233 | 59 | 109 | 1.0 | 2.0 | 0.12 | 3.80 | 3.80 | 99 | 1009.7 |
| 20260501235732 | 59 | 63 | 1.0 | 7.0 | 0.17 | 3.79 | 3.79 | 99 | 1009.4 |
| 20260501235229 | 59 | 140 | 0.0 | 3.0 | 0.31 | 3.77 | 3.77 | 99 | 1009.3 |
| 20260501234725 | 59 | 15 | 1.0 | 6.0 | 0.54 | 3.75 | 3.75 | 99 | 1009.3 |
| 20260501234222 | 59 | 121 | 1.0 | 2.0 | 0.73 | 3.71 | 3.71 | 99 | 1009.9 |
| 20260501233720 | 60 | 39 | 0.0 | 5.0 | 0.42 | 3.65 | 3.65 | 99 | 1010.0 |
| 20260501233217 | 60 | 43 | 0.0 | 8.0 | 0.07 | 3.58 | 3.58 | 99 | 1009.5 |
| 20260501232713 | 60 | 62 | 1.0 | 6.0 | 0.07 | 3.58 | 3.58 | 99 | 1009.0 |
| 20260501232210 | 60 | 105 | 1.0 | 5.0 | 0.00 | 3.57 | 3.57 | 99 | 1008.1 |
| 20260501231708 | 60 | 9 | 3.0 | 11.0 | 0.05 | 3.57 | 3.57 | 99 | 1007.5 |
| 20260501231206 | 60 | 43 | 7.0 | 9.0 | 0.05 | 3.57 | 3.57 | 99 | 1007.4 |
| 20260501230704 | 60 | 17 | 0.0 | 6.0 | 0.07 | 3.56 | 3.56 | 99 | 1007.9 |
| 20260501230202 | 60 | 36 | 1.0 | 3.0 | 0.12 | 3.55 | 3.55 | 99 | 1008.7 |
| 20260501225659 | 60 | 31 | 1.0 | 3.0 | 0.17 | 3.55 | 3.55 | 99 | 1008.9 |
| 20260501225156 | 60 | 111 | 0.0 | 6.0 | 0.17 | 3.53 | 3.53 | 99 | 1008.8 |
| 20260501224652 | 60 | 127 | 0.0 | 8.0 | 0.19 | 3.52 | 3.52 | 99 | 1008.1 |
| 20260501224150 | 60 | 112 | 2.0 | 5.0 | 0.07 | 3.50 | 3.50 | 99 | 1008.2 |
| 20260501223646 | 60 | 40 | 3.0 | 7.0 | 0.00 | 3.49 | 3.49 | 99 | 1007.9 |
| 20260501223143 | 60 | 94 | 2.0 | 6.0 | 0.00 | 3.49 | 3.49 | 99 | 1007.7 |
| 20260501222638 | 61 | 234 | 1.0 | 5.0 | 0.00 | 3.49 | 3.49 | 99 | 1007.9 |